Wind_Speed
18 16 16 15 14 14 14 15 15 16 18 18 18 19 18 18 18 19 21 22 22 23 23 23 21 19 17 20 20 17 14 12 11 10 9 9 10 11 13 15 15 14
18 17 17 15 15 15 15 15 15 17 18 17 18 19 19 18 18 18 21 23 24 24 23 22 20 17 17 21 21 17 14 12 11 10 9 10 11 13 14 15 15 15
18 18 17 15 15 15 15 15 16 18 17 17 19 19 18 18 17 17 19 22 24 24 24 23 20 18 18 21 20 17 14 12 11 10 10 11 12 14 15 16 16 16
19 19 17 16 16 16 16 16 16 17 17 18 19 18 17 17 17 17 18 20 22 23 24 22 19 18 19 20 19 17 15 13 12 11 12 12 14 15 16 16 16 16
20 19 18 17 17 17 17 17 17 18 18 18 18 17 17 17 17 17 17 19 21 22 24 21 16 17 19 19 19 18 16 14 14 13 14 14 14 15 16 17 17 17
21 21 19 18 18 18 18 17 17 18 19 19 18 17 17 17 17 17 17 19 21 22 24 21 15 16 18 17 17 17 15 14 15 15 16 15 16 16 17 18 18 18
22 22 20 19 19 19 19 18 18 19 19 19 18 17 17 17 17 17 18 20 21 22 24 22 17 18 18 16 16 15 14 15 16 17 17 16 17 17 18 18 19 19
23 23 21 20 20 20 20 19 19 18 18 18 17 17 17 17 17 18 19 20 21 22 23 23 21 20 18 17 16 14 14 15 16 17 17 17 17 18 19 19 20 19
25 24 22 21 21 21 21 20 19 18 17 17 17 17 17 18 18 19 19 20 21 22 23 24 23 21 19 17 16 15 16 17 17 18 18 18 19 19 20 20 20 20
26 26 24 22 22 22 21 20 18 17 17 17 17 17 18 18 19 19 20 20 21 22 24 24 23 21 19 18 17 16 17 18 19 18 19 19 20 21 21 21 21 21
28 27 25 24 23 22 21 20 18 17 17 18 18 18 19 19 19 19 19 19 20 22 24 24 23 21 20 19 18 18 19 19 19 19 19 20 21 21 21 21 22 21
29 28 26 24 24 23 21 19 18 18 18 19 19 19 20 19 18 18 18 19 21 23 24 24 23 22 21 21 20 19 19 19 19 19 19 20 21 21 21 22 22 21
30 29 27 25 24 23 21 19 18 19 19 20 20 20 21 19 18 18 18 20 21 22 24 24 24 23 22 21 20 19 19 19 18 18 19 19 19 20 21 22 22 22
31 31 28 25 24 23 21 20 19 20 20 20 21 21 21 19 18 18 18 20 21 22 23 23 23 22 21 20 20 19 19 19 18 18 18 18 18 20 21 23 23 23
32 32 29 26 24 23 21 21 20 21 21 21 21 21 20 19 19 19 19 20 21 21 22 22 21 21 20 20 19 19 19 19 19 19 18 18 19 20 22 23 24 25
34 33 30 26 25 23 22 22 22 22 22 22 21 21 20 19 19 19 19 20 21 21 21 20 20 20 20 19 19 19 19 19 19 20 20 20 20 21 22 24 26 27
35 34 30 27 25 23 23 23 23 23 23 22 22 21 20 19 19 19 19 20 21 21 20 20 19 20 20 19 19 19 19 19 20 20 21 21 22 22 24 26 27 29
36 34 30 27 26 24 24 24 24 24 24 23 23 21 19 19 20 19 20 20 21 21 20 20 20 20 20 19 19 19 20 20 21 21 21 22 23 24 25 26 28 31
37 34 31 28 26 25 24 25 25 25 25 24 23 21 20 20 20 20 20 20 21 21 21 21 20 20 20 20 20 20 21 22 22 22 22 22 23 25 26 27 28 30
36 34 32 29 26 26 26 25 25 26 25 25 23 21 20 20 21 20 20 19 19 20 21 21 21 21 21 21 20 21 22 23 22 22 22 24 25 26 26 27 28 28
36 35 32 29 27 27 27 26 26 26 26 26 24 22 20 20 20 20 20 20 20 20 20 20 21 22 22 22 21 22 23 24 23 22 23 24 25 24 24 25 26 26
35 34 31 29 28 29 28 27 26 27 27 26 25 22 20 20 20 21 21 21 20 20 19 20 21 22 22 22 21 22 23 24 23 22 22 22 21 21 22 23 25 24
34 33 31 29 29 29 29 28 26 27 27 27 26 23 21 20 20 21 21 21 20 20 20 20 21 22 21 21 21 22 23 23 23 22 21 20 19 19 21 23 25 24
33 31 29 29 29 29 29 27 26 27 28 27 26 23 21 20 20 21 22 22 21 21 21 21 21 21 20 20 20 22 23 23 24 23 20 18 18 19 21 24 25 23
32 30 28 29 29 29 29 27 26 26 28 28 26 24 22 22 22 22 23 23 22 22 22 21 21 20 20 20 20 21 22 24 24 22 19 18 19 21 23 25 25 23
32 30 29 30 30 29 28 26 26 27 28 29 28 26 24 23 23 23 23 23 23 22 22 21 21 21 21 21 20 21 22 23 21 20 19 20 21 23 24 26 27 25
Wind_Direction
235 237 235 235 237 237 236 237 239 237 232 230 237 242 245 248 247 244 241 238 242 245 248 248 243 244 238 227 231 235 232 235 244 251 263 275 283 285 283 281 280 279
234 237 235 235 238 237 236 237 237 237 233 228 235 243 246 249 248 246 241 235 237 241 245 246 241 242 235 222 226 235 233 235 244 254 269 279 283 285 282 280 278 275
233 236 235 237 239 238 236 235 234 236 234 230 237 244 248 249 247 245 241 236 234 238 243 242 236 238 231 218 225 234 230 234 247 260 274 279 282 283 281 278 276 274
232 234 234 235 237 235 233 232 229 231 232 233 239 246 248 248 244 242 239 236 235 237 244 244 233 230 228 221 227 232 231 239 250 260 272 278 281 282 280 278 276 275
230 231 231 233 236 234 232 229 225 227 231 234 240 245 246 244 241 240 237 235 235 236 244 245 225 217 225 226 229 232 236 245 252 259 271 278 281 281 280 278 277 276
227 229 230 232 234 233 231 228 224 225 229 233 239 242 244 241 237 239 236 234 235 234 240 244 227 220 228 230 232 236 241 249 256 262 270 277 280 281 281 279 277 275
226 229 231 233 233 231 229 226 223 224 226 231 238 241 241 240 237 238 237 235 234 233 235 237 231 228 231 232 237 243 247 253 258 263 269 276 280 281 280 278 275 273
226 228 231 233 233 229 227 225 223 223 226 231 238 240 240 240 240 240 239 237 235 231 228 227 227 230 233 236 242 249 253 257 261 265 271 277 280 280 278 275 273 273
225 227 230 232 232 228 225 224 224 225 228 233 238 238 237 239 241 243 243 240 235 228 223 222 225 229 233 237 245 253 257 260 264 268 273 278 278 277 276 273 272 272
224 226 230 232 231 228 225 223 223 226 229 234 237 237 236 238 241 244 245 242 234 225 220 221 225 230 235 240 248 256 260 263 267 271 275 276 276 275 274 272 272 272
223 226 230 231 229 228 225 222 223 225 228 233 236 236 236 238 242 246 246 239 229 222 219 221 226 231 237 243 250 257 261 265 268 273 275 275 275 274 272 271 271 272
223 226 229 230 229 227 224 222 223 224 227 231 234 235 235 237 241 245 242 233 224 219 219 222 228 234 240 246 252 258 261 265 269 273 275 275 275 274 271 270 270 272
223 226 229 229 227 227 224 222 223 224 226 229 232 233 235 237 240 241 235 227 222 219 220 224 230 237 243 248 253 258 262 266 270 272 274 275 276 274 272 270 270 270
223 226 228 228 226 225 223 221 223 224 225 229 231 232 234 236 237 234 228 222 220 220 222 227 232 238 244 248 254 259 262 265 268 270 273 276 276 275 272 271 270 269
222 226 228 227 225 223 220 220 222 223 225 228 231 233 234 235 233 229 223 221 220 221 223 227 233 238 244 248 253 258 262 265 267 269 272 274 275 274 272 271 269 268
221 225 228 227 225 222 218 219 221 222 224 228 232 234 234 234 232 228 223 221 222 223 226 229 235 240 244 247 252 258 262 266 269 270 271 273 273 272 272 271 269 268
221 225 228 227 225 222 218 219 220 221 223 227 231 235 234 232 231 228 225 224 224 226 229 233 237 241 243 247 253 258 263 268 270 271 272 274 275 276 275 273 271 269
221 224 227 227 225 221 219 219 219 220 222 225 230 234 233 231 230 229 227 226 228 230 233 236 239 241 245 249 254 259 264 267 269 271 272 275 278 279 279 278 277 275
221 224 227 227 224 222 221 220 219 219 220 224 229 232 231 229 228 227 227 229 232 234 236 238 240 242 246 251 255 260 264 265 267 270 274 277 279 281 283 284 284 283
222 225 226 226 224 223 222 221 218 218 219 223 227 229 228 227 226 227 228 230 233 235 237 238 240 243 247 251 256 260 263 266 269 273 277 280 281 283 287 288 287 286
222 225 226 225 224 224 224 221 218 217 218 221 226 228 226 225 226 226 227 229 231 233 234 237 240 243 247 251 256 261 266 270 273 277 281 284 285 288 292 293 292 289
223 225 226 225 225 224 224 222 218 217 218 221 225 226 225 225 225 226 227 228 229 231 234 238 241 244 248 252 256 262 268 273 277 281 286 290 291 294 296 297 295 292
225 226 226 226 226 225 225 224 219 216 218 221 223 225 224 225 226 227 229 230 231 233 237 239 242 246 251 255 260 266 272 277 279 283 288 291 292 294 294 294 294 292
225 226 225 226 227 226 226 225 221 218 219 221 223 224 224 225 227 228 229 231 233 235 238 241 245 250 254 259 263 269 274 278 280 283 287 289 290 292 292 291 291 288
227 227 227 229 229 226 225 225 223 221 220 220 222 223 224 225 226 227 229 231 234 236 240 244 247 252 257 261 265 270 274 276 279 282 284 288 292 294 294 292 289 283
230 230 231 232 229 225 223 224 224 223 221 220 222 222 223 225 226 227 230 232 234 237 241 245 249 253 258 262 265 270 273 275 279 282 284 289 294 294 293 290 286 280
Height
3124 3125 3126 3127 3128 3129 3129 3130 3131 3131 3132 3134 3136 3137 3138 3139 3140 3140 3141 3142 3143 3143 3144 3145 3146 3147 3149 3150 3152 3153 3153 3153 3154 3154 3154 3154 3154 3154 3154 3154 3154 3153
3122 3123 3124 3125 3126 3127 3127 3128 3128 3129 3130 3132 3134 3135 3136 3137 3138 3138 3139 3140 3141 3141 3142 3143 3145 3146 3147 3148 3150 3151 3152 3152 3152 3153 3152 3152 3152 3152 3152 3152 3152 3151
3120 3121 3122 3123 3124 3125 3125 3126 3126 3127 3129 3131 3132 3132 3133 3135 3136 3136 3137 3137 3138 3139 3140 3141 3142 3144 3145 3146 3148 3149 3150 3150 3150 3151 3151 3150 3150 3150 3150 3150 3150 3150
3118 3119 3120 3121 3122 3123 3123 3124 3124 3125 3127 3128 3129 3131 3132 3133 3134 3134 3135 3136 3137 3138 3138 3139 3140 3142 3144 3145 3146 3147 3148 3148 3149 3149 3149 3148 3148 3148 3148 3148 3148 3148
3116 3117 3118 3119 3120 3120 3121 3122 3123 3124 3125 3126 3127 3129 3130 3131 3132 3133 3134 3134 3135 3136 3136 3137 3139 3141 3142 3144 3145 3145 3146 3146 3147 3147 3147 3146 3146 3146 3146 3146 3146 3146
3113 3114 3116 3117 3117 3118 3119 3120 3121 3122 3123 3124 3126 3127 3128 3129 3130 3131 3132 3132 3133 3134 3134 3135 3137 3139 3141 3142 3143 3143 3144 3144 3144 3145 3144 3144 3144 3144 3144 3144 3144 3144
3111 3112 3113 3114 3115 3116 3117 3118 3119 3120 3121 3123 3124 3125 3126 3127 3128 3128 3129 3130 3131 3132 3133 3133 3135 3137 3138 3139 3140 3141 3142 3142 3142 3142 3142 3142 3142 3142 3142 3142 3141 3141
3108 3109 3111 3112 3113 3114 3115 3116 3117 3118 3120 3121 3122 3123 3124 3125 3125 3126 3127 3127 3128 3129 3130 3132 3133 3135 3136 3137 3138 3139 3140 3140 3140 3140 3140 3140 3140 3140 3140 3139 3139 3139
3105 3107 3108 3109 3110 3111 3112 3113 3115 3116 3118 3119 3120 3121 3122 3123 3123 3123 3124 3125 3126 3127 3128 3130 3131 3133 3134 3135 3136 3137 3138 3138 3138 3138 3138 3138 3138 3138 3137 3137 3137 3137
3102 3104 3105 3107 3108 3109 3110 3111 3112 3114 3115 3116 3117 3119 3119 3120 3121 3121 3122 3122 3124 3125 3126 3128 3130 3131 3132 3133 3134 3135 3135 3136 3136 3136 3136 3136 3136 3135 3135 3135 3135 3134
3099 3101 3103 3104 3106 3107 3108 3109 3110 3112 3113 3114 3115 3116 3117 3118 3118 3119 3119 3120 3122 3123 3125 3127 3128 3129 3130 3131 3132 3132 3133 3133 3134 3134 3134 3133 3133 3133 3133 3132 3132 3132
3097 3099 3100 3102 3103 3104 3106 3107 3108 3110 3111 3112 3113 3114 3114 3115 3116 3117 3117 3119 3120 3122 3123 3125 3126 3127 3128 3129 3130 3130 3131 3131 3131 3131 3131 3131 3131 3130 3130 3130 3129 3129
3094 3096 3098 3100 3101 3102 3103 3104 3106 3107 3108 3109 3110 3111 3112 3113 3114 3115 3115 3117 3118 3120 3121 3123 3124 3125 3126 3127 3128 3128 3129 3129 3129 3129 3129 3128 3128 3128 3127 3127 3127 3126
3091 3093 3095 3097 3098 3099 3101 3102 3103 3105 3106 3107 3108 3109 3110 3111 3112 3112 3113 3115 3116 3118 3119 3120 3122 3123 3124 3125 3126 3126 3126 3126 3127 3126 3126 3126 3126 3125 3125 3124 3124 3123
3088 3090 3092 3094 3095 3097 3098 3099 3101 3102 3103 3104 3105 3107 3108 3109 3109 3110 3111 3112 3114 3116 3117 3118 3119 3121 3122 3123 3123 3124 3124 3124 3124 3124 3124 3123 3123 3122 3122 3121 3121 3120
3085 3087 3089 3091 3093 3094 3095 3097 3098 3099 3101 3102 3103 3104 3106 3106 3107 3108 3109 3111 3112 3114 3115 3116 3117 3119 3119 3120 3121 3121 3121 3121 3121 3121 3121 3120 3120 3120 3119 3118 3118 3117
3082 3084 3086 3088 3090 3092 3093 3094 3095 3096 3098 3100 3101 3102 3103 3104 3105 3106 3107 3109 3110 3112 3113 3114 3115 3116 3117 3117 3118 3118 3118 3118 3118 3118 3118 3118 3117 3117 3117 3116 3115 3114
3079 3081 3083 3085 3087 3089 3090 3091 3092 3094 3095 3097 3098 3100 3101 3102 3103 3104 3105 3107 3108 3109 3111 3112 3113 3114 3114 3114 3115 3115 3116 3116 3115 3115 3115 3115 3115 3114 3114 3113 3112 3110
3076 3078 3080 3082 3085 3086 3087 3088 3089 3091 3093 3095 3096 3097 3098 3099 3100 3102 3103 3104 3106 3107 3108 3110 3111 3111 3111 3111 3112 3113 3113 3113 3113 3113 3113 3112 3112 3111 3111 3110 3109 3108
3073 3075 3077 3079 3082 3083 3084 3085 3087 3089 3090 3092 3093 3095 3096 3097 3098 3099 3101 3102 3103 3105 3106 3107 3108 3108 3108 3109 3110 3110 3110 3110 3110 3110 3110 3110 3109 3108 3107 3107 3106 3105
3070 3072 3074 3077 3078 3080 3081 3083 3084 3086 3087 3089 3091 3092 3094 3095 3096 3097 3098 3099 3101 3102 3103 3104 3105 3105 3105 3106 3107 3107 3107 3107 3107 3108 3107 3107 3106 3105 3104 3103 3102 3101
3067 3069 3071 3074 3075 3077 3078 3080 3081 3083 3085 3087 3088 3090 3091 3092 3093 3094 3095 3097 3098 3099 3100 3101 3102 3102 3103 3104 3104 3104 3104 3104 3104 3105 3104 3104 3103 3102 3102 3100 3099 3098
3064 3066 3068 3070 3072 3074 3075 3077 3078 3080 3082 3084 3085 3087 3088 3089 3090 3091 3093 3094 3095 3096 3098 3098 3099 3099 3100 3101 3101 3101 3101 3101 3101 3102 3101 3101 3101 3100 3099 3098 3096 3095
3061 3063 3066 3068 3069 3071 3073 3074 3076 3077 3079 3081 3082 3084 3085 3086 3087 3089 3090 3091 3092 3094 3095 3096 3096 3097 3097 3098 3098 3098 3098 3098 3098 3098 3099 3099 3098 3098 3096 3095 3094 3093
3058 3061 3063 3065 3067 3068 3070 3071 3073 3074 3076 3077 3079 3081 3082 3083 3084 3085 3087 3088 3089 3091 3092 3093 3094 3094 3095 3095 3095 3096 3096 3095 3095 3095 3096 3096 3095 3094 3093 3092 3091 3090
3055 3058 3060 3062 3064 3065 3067 3069 3070 3071 3073 3074 3075 3077 3078 3080 3081 3083 3084 3085 3087 3088 3090 3091 3091 3091 3092 3092 3092 3093 3093 3093 3093 3093 3092 3092 3092 3091 3090 3089 3088 3087